Weather in Arkaulovo

Russia / Republic of Bashkortostan     55°23′59″N   57°55′27″E
temp.,
°C
wind,
m/s
gust,
m/s
humid.,
%
clouds,
%
prec.,
mm/h
press.,
hPa
HPBL,
m
3 march, wed
wed323:00−11sw61588100 0.1 1002538
02:00−9sw61587100 0.0 1001509
05:00−9sw6138887 0.0 1000272
08:00−9sw499229 0.0 999140
11:00−3sw5108930 0.0 1000703
14:00−2wsw688399 0.1 999944
17:00−2wsw5784100 0.2 999880
20:00−5sw3692100 0.1 999131
4 march, thu
thu423:00−6sw479399 0.1 1000162
02:00−8ssw3595100 0.0 99878
05:00−8sw4994100 0.0 1000233
08:00−10w5109392 0.1 1000259
11:00−9wsw6108782 0.1 1002621
14:00−7wsw7118397 0.0 1001809
17:00−7sw7138697 0.1 1000731
20:00−8ssw6148999 0.0 999506
5 march, fri
fri523:00−8ssw61690100 0.1 997659
02:00−7sw51395100 0.8 994443
05:00−6wsw10179098 1.5 996808
08:00−6wsw8148878 0.1 999523
11:00−4wsw8138589 0.1 1001786
14:00−3wsw6984100 0.0 1000832
17:00−3wsw2395100 0.6 1001288
20:00−4nnw2297100 1.1 100030
6 march, sat
sat623:00−6nnw4796100 2.3 1002281
02:00−10wnw5991100 1.0 1005439
05:00−19w489667 1.0 1011119
08:00−19wsw489443 0.0 1013121
11:00−13wsw5109025 0.0 1013404
14:00−9wsw698587 0.0 1013680
17:00−9wsw468794 0.0 1012574
20:00−13ssw2291100 0.0 101121
7 march, sun
sun723:00−14ese1188100 0.0 100921
02:00−13ene1191100 0.0 100620
05:00−13nne1296100 0.4 100621
08:00−12wnw1196100 0.9 100522
11:00−11w5789100 1.3 1006510
14:00−10w6884100 0.0 1007814
17:00−11w6885100 0.2 1008961
20:00−18wsw589585 0.0 1011164